| time (UTC) | temp F | wind direction | speed MPH | gust MPH | rain 1hr in | rain 24hr in | rain mn in | humidity % | barometer mb |
| 20260510110505 | 48 | 248 | 9.0 | 11.0 | 0.00 | 0.00 | 0.00 | 1023.0 | |
| 20260510103505 | 47 | 261 | 9.0 | 12.0 | 0.00 | 0.00 | 0.00 | 1023.0 | |
| 20260510100505 | 47 | 261 | 9.0 | 12.0 | 0.00 | 0.00 | 0.00 | 1023.0 | |
| 20260510093506 | 46 | 265 | 10.0 | 13.0 | 0.00 | 0.00 | 0.00 | 1024.0 | |
| 20260510090506 | 46 | 265 | 10.0 | 13.0 | 0.00 | 0.01 | 0.00 | 1024.0 | |
| 20260510083506 | 44 | 258 | 11.0 | 15.0 | 0.00 | 0.01 | 0.00 | 1025.0 | |
| 20260510080506 | 44 | 258 | 11.0 | 15.0 | 0.00 | 0.01 | 0.00 | 1025.0 | |
| 20260510073506 | 43 | 248 | 10.0 | 15.0 | 0.00 | 0.01 | 0.00 | 1025.0 | |
| 20260510070506 | 43 | 248 | 10.0 | 15.0 | 0.00 | 0.01 | 0.00 | 1025.0 | |
| 20260510063506 | 42 | 247 | 9.0 | 13.0 | 0.00 | 0.01 | 0.00 | 1025.0 | |
| 20260510060506 | 43 | 256 | 8.0 | 12.0 | 0.00 | 0.01 | 0.00 | 1026.0 | |
| 20260510053505 | 43 | 282 | 6.0 | 9.0 | 0.00 | 0.01 | 0.00 | 1026.0 | |
| 20260510050505 | 43 | 282 | 6.0 | 9.0 | 0.00 | 0.01 | 0.00 | 1026.0 | |
| 20260510043505 | 43 | 316 | 6.0 | 10.0 | 0.00 | 0.01 | 0.00 | 1026.0 | |
| 20260510040505 | 43 | 316 | 6.0 | 10.0 | 0.00 | 0.01 | 0.00 | 1026.0 | |
| 20260510033505 | 43 | 332 | 7.0 | 11.0 | 0.00 | 0.01 | 0.00 | 1026.0 | |
| 20260510030505 | 43 | 332 | 7.0 | 11.0 | 0.00 | 0.01 | 0.00 | 1026.0 | |
| 20260510023505 | 43 | 337 | 8.0 | 12.0 | 0.00 | 0.01 | 0.00 | 1027.0 | |
| 20260510020505 | 43 | 337 | 8.0 | 12.0 | 0.00 | 0.01 | 0.00 | 1027.0 | |
| 20260510013505 | 44 | 346 | 6.0 | 9.0 | 0.00 | 0.01 | 0.00 | 1027.0 | |
| 20260510010505 | 44 | 346 | 6.0 | 9.0 | 0.00 | 0.01 | 0.00 | 1027.0 | |
| 20260510003506 | 45 | 353 | 6.0 | 9.0 | 0.00 | 0.01 | 0.00 | 1027.0 | |
| 20260510000506 | 45 | 17 | 6.0 | 8.0 | 0.00 | 0.01 | 0.00 | 1027.0 | |
| 20260509233506 | 45 | 26 | 6.0 | 9.0 | 0.00 | 0.01 | 0.00 | 1027.0 | |
| 20260509230506 | 45 | 26 | 6.0 | 9.0 | 0.00 | 0.01 | 0.00 | 1028.0 | |
| 20260509223506 | 46 | 42 | 6.0 | 9.0 | 0.00 | 0.01 | 0.00 | 1028.0 | |
| 20260509220506 | 46 | 42 | 6.0 | 9.0 | 0.00 | 0.01 | 0.00 | 1028.0 | |
| 20260509213506 | 46 | 58 | 8.0 | 11.0 | 0.00 | 0.01 | 0.00 | 1027.0 | |
| 20260509210506 | 46 | 58 | 8.0 | 11.0 | 0.00 | 0.01 | 0.00 | 1027.0 | |
| 20260509203505 | 46 | 64 | 8.0 | 12.0 | 0.00 | 0.01 | 0.00 | 1027.0 | |
| 20260509200505 | 46 | 64 | 8.0 | 12.0 | 0.00 | 0.01 | 0.00 | 1027.0 | |
| 20260509193505 | 46 | 64 | 10.0 | 13.0 | 0.00 | 0.01 | 0.00 | 1027.0 | |
| 20260509190505 | 46 | 64 | 10.0 | 13.0 | 0.00 | 0.01 | 0.00 | 1027.0 | |
| 20260509183505 | 46 | 68 | 11.0 | 14.0 | 0.00 | 0.01 | 0.00 | 1026.0 | |
| 20260509180505 | 46 | 63 | 11.0 | 15.0 | 0.00 | 0.01 | 0.00 | 1026.0 | |
| 20260509173505 | 46 | 72 | 11.0 | 15.0 | 0.00 | 0.01 | 0.00 | 1026.0 | |
| 20260509170505 | 46 | 72 | 11.0 | 15.0 | 0.00 | 0.01 | 0.00 | 1026.0 | |
| 20260509163506 | 46 | 72 | 11.0 | 15.0 | 0.00 | 0.01 | 0.00 | 1026.0 | |
| 20260509160505 | 46 | 72 | 11.0 | 15.0 | 0.00 | 0.01 | 0.00 | 1026.0 | |
| 20260509153506 | 46 | 78 | 10.0 | 14.0 | 0.00 | 0.01 | 0.00 | 1026.0 | |
| 20260509150506 | 46 | 78 | 10.0 | 14.0 | 0.00 | 0.01 | 0.00 | 1026.0 | |
| 20260509143506 | 46 | 75 | 10.0 | 13.0 | 0.00 | 0.01 | 0.00 | 1027.0 | |
| 20260509140506 | 46 | 75 | 10.0 | 13.0 | 0.00 | 0.01 | 0.00 | 1026.0 | |
| 20260509133506 | 46 | 58 | 11.0 | 15.0 | 0.00 | 0.01 | 0.00 | 1027.0 | |
| 20260509130506 | 46 | 58 | 11.0 | 15.0 | 0.00 | 0.01 | 0.00 | 1027.0 | |
| 20260509123505 | 46 | 48 | 13.0 | 17.0 | 0.00 | 0.01 | 0.00 | 1027.0 | |
| 20260509120506 | 47 | 53 | 13.0 | 17.0 | 0.00 | 0.01 | 0.00 | 1027.0 | |
| 20260509113505 | 46 | 44 | 13.0 | 17.0 | 0.00 | 0.01 | 0.00 | 1026.0 |